Location: Newark
(55.5030°N, 22.7200°E)
Time: 22:21:45
(UTC+00:00)

Vanguard 1 Rocket - All Passes

Search period start: 25 May 2020 00:00
Search period end: 04 June 2020 00:00
Orbit: 653 x 4224 km, 34.3° (Epoch: 23 May)

Date Brightness Start Highest point End Pass type
(mag) Time Alt. Az. Time Alt. Az. Time Alt. Az.
25 May - 00:09:55 10° SSW 00:15:16 14° SSE 00:19:28 10° SE visible
25 May - 02:35:15 10° SW 02:39:35 14° S 02:43:00 10° SSE daylight
25 May - 22:59:20 10° S 23:04:00 12° SSE 23:07:54 10° SE visible
26 May - 01:22:30 10° SW 01:28:53 17° S 01:33:34 10° SE daylight
26 May - 03:51:22 10° SSW 03:52:34 10° SSW 03:53:41 10° SSW daylight
27 May - 00:10:03 10° SSW 00:17:54 17° S 00:23:30 10° SE visible
27 May - 02:37:02 10° SW 02:42:11 15° SSW 02:46:05 10° SSE daylight
27 May - 22:58:09 10° SSW 23:06:34 16° SSE 23:12:45 10° SE visible
28 May - 01:23:49 10° SW 01:31:30 19° S 01:36:51 10° SE daylight
28 May - 03:54:34 10° SSW 03:55:02 10° SSW 03:55:29 10° SSW daylight
28 May - 21:47:32 10° S 21:54:58 14° SSE 22:00:51 10° SE visible
29 May - 00:10:47 10° SW 00:20:28 21° S 00:27:00 10° SE visible
29 May - 02:39:02 10° SW 02:44:43 16° SSW 02:48:57 10° SSE daylight
29 May - 20:41:10 10° SSE 20:43:12 10° SSE 20:45:07 10° SE visible
29 May - 22:58:07 10° SSW 23:09:05 21° SSE 23:16:36 10° SE visible
30 May - 01:25:21 10° SW 01:34:04 21° S 01:39:55 10° SE daylight
30 May - 21:46:16 10° SSW 21:57:22 18° SSE 22:05:25 10° ESE visible
31 May - 00:11:50 10° SW 00:23:01 24° S 00:30:14 10° SE visible
31 May - 02:41:12 10° WSW 02:47:10 16° SSW 02:51:36 10° S daylight
31 May - 20:36:04 10° S 20:45:27 15° SSE 20:52:56 10° ESE visible
31 May - 22:58:35 10° SW 23:11:33 24° S 23:20:01 10° ESE visible
01 Jun - 01:27:04 10° WSW 01:36:33 22° SSW 01:42:48 10° SSE daylight
01 Jun - 19:31:07 10° SSE 19:33:29 10° SE 19:35:44 10° SE daylight
01 Jun - 21:45:57 10° SSW 21:59:44 23° SSE 22:09:11 10° ESE visible
02 Jun - 00:13:07 10° SW 00:25:29 26° S 00:33:16 10° SE visible
02 Jun - 02:43:31 10° WSW 02:49:31 16° SSW 02:54:00 10° S daylight
02 Jun - 20:34:30 10° S 20:47:40 20° SSE 20:57:27 10° ESE visible
02 Jun - 22:59:23 10° SW 23:13:59 28° S 23:23:11 10° SE visible
03 Jun - 01:28:54 10° WSW 01:38:57 22° SSW 01:45:32 10° SSE daylight
03 Jun - 19:25:10 10° S 19:35:30 15° SE 19:44:03 10° ESE daylight
03 Jun - 21:46:11 10° SSW 22:02:03 27° SSE 22:12:33 10° ESE visible
